Location: Saint Louis
(38.6272°N, 90.1978°W)
Time: 12:58:11
(UTC-05:00)

Tiangong 1 - Visible Passes

Search period start: 20 October 2014 00:00
Search period end: 30 October 2014 00:00
Orbit: 353 x 362 km, 42.8° (Epoch: 20 October)

Date Brightness Start Highest point End Pass type
(mag) Time Alt. Az. Time Alt. Az. Time Alt. Az.
20 Oct 3.3 19:23:53 10° SSE 19:24:42 12° SSE 19:24:42 12° SSE visible
21 Oct 2.6 19:49:54 10° SW 19:51:37 26° SSW 19:51:37 26° SSW visible
22 Oct 3.0 18:42:30 10° S 18:44:26 16° SE 18:46:21 10° ESE visible
22 Oct 3.6 20:17:16 10° WSW 20:18:19 20° WSW 20:18:19 20° WSW visible
23 Oct 1.4 19:08:56 10° SW 19:11:47 45° SSE 19:13:10 25° E visible
24 Oct 0.9 19:36:17 10° WSW 19:39:15 70° NNW 19:39:29 65° NNE visible
25 Oct 3.0 20:03:55 10° W 20:05:38 27° WNW 20:05:38 27° WNW visible
26 Oct 1.3 18:54:54 10° W 18:57:51 58° NNW 19:00:01 16° ENE visible
26 Oct 4.5 20:31:28 10° WNW 20:31:38 11° WNW 20:31:38 11° WNW visible
27 Oct 1.9 19:22:22 10° WNW 19:25:10 37° N 19:25:53 31° NNE visible
28 Oct 2.6 19:49:40 10° WNW 19:51:38 29° NNW 19:51:38 29° NNW visible
29 Oct 2.0 18:40:24 10° WNW 18:43:11 35° N 18:45:42 12° ENE visible
29 Oct 4.0 20:16:41 10° WNW 20:17:18 15° WNW 20:17:18 15° WNW visible
